Wetterdaten: Freitag, 27.03.2015
Datum Zeit Auen-Temp. Temp gefhlt Luftfeuchte Luftdruck Regen Wind Richtung Richtung Taupunkt Windben
27.03.2015 00:00 3,3 C 3,2 C 84 % 1011,6 hPa 0,0 mm 1,8 km/h (1 Bft) W-NW 292 0,9 C 2,3 km/h (1 Bft)
27.03.2015 00:05 3,4 C 3,2 C 84 % 1011,6 hPa 0,0 mm 2,1 km/h (1 Bft) W-SW 247 1,0 C 0,0 km/h (0 Bft)
27.03.2015 00:10 3,3 C 3,2 C 84 % 1011,6 hPa 0,0 mm 1,9 km/h (1 Bft) W 270 0,9 C 2,3 km/h (1 Bft)
27.03.2015 00:15 3,4 C 3,2 C 84 % 1011,6 hPa 0,0 mm 2,1 km/h (1 Bft) W-SW 247 1,0 C 3,1 km/h (1 Bft)
27.03.2015 00:20 3,4 C 3,2 C 84 % 1011,6 hPa 0,0 mm 2,4 km/h (1 Bft) W-SW 247 1,0 C 2,7 km/h (1 Bft)
27.03.2015 00:25 3,4 C 3,2 C 84 % 1011,8 hPa 0,0 mm 2,6 km/h (1 Bft) NW 315 1,0 C 7,1 km/h (2 Bft)
27.03.2015 00:30 3,4 C 3,1 C 84 % 1011,8 hPa 0,0 mm 3,1 km/h (1 Bft) W 270 1,0 C 3,7 km/h (1 Bft)
27.03.2015 00:35 3,4 C 3,0 C 84 % 1011,8 hPa 0,0 mm 3,7 km/h (1 Bft) W 270 1,0 C 7,6 km/h (2 Bft)
27.03.2015 00:40 3,3 C 2,7 C 84 % 1011,8 hPa 0,0 mm 4,5 km/h (1 Bft) W 270 0,9 C 6,6 km/h (2 Bft)
27.03.2015 00:45 3,3 C 2,5 C 84 % 1011,7 hPa 0,0 mm 5,8 km/h (2 Bft) SW 225 0,9 C 13,0 km/h (3 Bft)
27.03.2015 00:50 3,2 C 2,4 C 84 % 1011,7 hPa 0,0 mm 5,8 km/h (2 Bft) S-SW 202 0,8 C 8,7 km/h (2 Bft)
27.03.2015 00:55 3,1 C 2,5 C 84 % 1011,7 hPa 0,0 mm 4,5 km/h (1 Bft) SW 225 0,7 C 6,6 km/h (2 Bft)
27.03.2015 01:00 3,1 C 2,5 C 84 % 1011,7 hPa 0,0 mm 4,0 km/h (1 Bft) W-NW 292 0,7 C 1,8 km/h (1 Bft)
27.03.2015 01:05 3,0 C 2,5 C 84 % 1011,6 hPa 0,0 mm 4,0 km/h (1 Bft) SW 225 0,6 C 5,3 km/h (1 Bft)
27.03.2015 01:10 3,0 C 2,5 C 84 % 1011,6 hPa 0,0 mm 4,0 km/h (1 Bft) SW 225 0,6 C 4,5 km/h (1 Bft)
27.03.2015 01:15 3,0 C 2,4 C 84 % 1011,6 hPa 0,0 mm 4,3 km/h (1 Bft) S-SW 202 0,6 C 2,4 km/h (1 Bft)
27.03.2015 01:20 3,0 C 2,5 C 84 % 1011,6 hPa 0,0 mm 3,4 km/h (1 Bft) S-SW 202 0,6 C 0,0 km/h (0 Bft)
27.03.2015 01:25 3,0 C 2,7 C 84 % 1011,7 hPa 0,0 mm 2,7 km/h (1 Bft) SW 225 0,6 C 4,2 km/h (1 Bft)
27.03.2015 01:30 3,0 C 2,4 C 85 % 1011,7 hPa 0,0 mm 4,0 km/h (1 Bft) W 270 0,7 C 4,2 km/h (1 Bft)
27.03.2015 01:35 2,9 C 2,2 C 85 % 1011,7 hPa 0,0 mm 4,7 km/h (1 Bft) W-SW 247 0,6 C 5,5 km/h (1 Bft)
27.03.2015 01:40 2,9 C 2,3 C 86 % 1011,7 hPa 0,0 mm 4,3 km/h (1 Bft) W-NW 292 0,8 C 4,8 km/h (1 Bft)
27.03.2015 01:45 3,0 C 2,2 C 85 % 1011,8 hPa 0,0 mm 5,6 km/h (1 Bft) W 270 0,7 C 14,3 km/h (3 Bft)
27.03.2015 01:50 3,0 C 2,1 C 85 % 1011,8 hPa 0,0 mm 6,6 km/h (2 Bft) W-NW 292 0,7 C 13,7 km/h (3 Bft)
27.03.2015 01:55 3,0 C 2,0 C 85 % 1011,8 hPa 0,0 mm 7,1 km/h (2 Bft) W-SW 247 0,7 C 16,7 km/h (3 Bft)
27.03.2015 02:00 3,0 C 2,1 C 85 % 1011,8 hPa 0,0 mm 6,6 km/h (2 Bft) SW 225 0,7 C 7,7 km/h (2 Bft)
27.03.2015 02:05 3,0 C 2,1 C 85 % 1012,2 hPa 0,0 mm 6,0 km/h (2 Bft) W-SW 247 0,7 C 12,7 km/h (3 Bft)
27.03.2015 02:10 3,0 C 2,0 C 85 % 1012,2 hPa 0,0 mm 6,8 km/h (2 Bft) W 270 0,7 C 13,7 km/h (3 Bft)
27.03.2015 02:15 3,0 C 2,2 C 85 % 1012,2 hPa 0,0 mm 7,9 km/h (2 Bft) W 270 0,7 C 6,6 km/h (2 Bft)
27.03.2015 02:20 2,9 C 1,8 C 86 % 1012,2 hPa 0,0 mm 8,0 km/h (2 Bft) W-SW 247 0,8 C 10,6 km/h (2 Bft)
27.03.2015 02:25 2,8 C 2,0 C 86 % 1012,3 hPa 0,0 mm 8,0 km/h (2 Bft) W 270 0,7 C 19,2 km/h (3 Bft)
27.03.2015 02:30 2,8 C 2,0 C 86 % 1012,3 hPa 0,0 mm 7,9 km/h (2 Bft) W 270 0,7 C 8,2 km/h (2 Bft)
27.03.2015 02:35 2,8 C 1,7 C 86 % 1012,3 hPa 0,7 mm 7,9 km/h (2 Bft) W 270 0,7 C 20,9 km/h (4 Bft)
27.03.2015 02:40 2,8 C 1,9 C 86 % 1012,3 hPa 0,0 mm 8,4 km/h (2 Bft) W-SW 247 0,7 C 8,5 km/h (2 Bft)
27.03.2015 02:45 2,8 C 1,9 C 86 % 1012,3 hPa 0,0 mm 8,2 km/h (2 Bft) O 90 0,7 C 11,4 km/h (2 Bft)
27.03.2015 02:50 2,7 C 1,7 C 86 % 1012,3 hPa 0,0 mm 7,1 km/h (2 Bft) W 270 0,6 C 4,8 km/h (1 Bft)
27.03.2015 02:55 2,7 C 1,6 C 86 % 1012,3 hPa 0,0 mm 7,2 km/h (2 Bft) W 270 0,6 C 5,5 km/h (1 Bft)
27.03.2015 03:00 2,6 C 1,6 C 86 % 1012,3 hPa 0,0 mm 6,9 km/h (2 Bft) W 270 0,5 C 6,0 km/h (2 Bft)
27.03.2015 03:05 2,7 C 1,7 C 86 % 1012,5 hPa 0,0 mm 6,6 km/h (2 Bft) SW 225 0,6 C 7,2 km/h (2 Bft)
27.03.2015 03:10 2,6 C 1,7 C 86 % 1012,5 hPa 0,0 mm 6,3 km/h (2 Bft) W 270 0,5 C 9,7 km/h (2 Bft)
27.03.2015 03:15 2,6 C 1,7 C 86 % 1012,5 hPa 0,0 mm 5,8 km/h (2 Bft) W 270 0,5 C 5,8 km/h (2 Bft)
27.03.2015 03:20 2,6 C 1,7 C 86 % 1012,5 hPa 0,0 mm 6,0 km/h (2 Bft) W 270 0,5 C 9,7 km/h (2 Bft)
27.03.2015 03:25 2,6 C 1,8 C 86 % 1012,7 hPa 0,0 mm 5,5 km/h (1 Bft) W-SW 247 0,5 C 5,3 km/h (1 Bft)
27.03.2015 03:30 2,6 C 1,9 C 86 % 1012,7 hPa 0,0 mm 4,8 km/h (1 Bft) W-SW 247 0,5 C 5,5 km/h (1 Bft)
27.03.2015 03:35 2,6 C 1,9 C 86 % 1012,7 hPa 0,0 mm 4,7 km/h (1 Bft) SW 225 0,5 C 6,9 km/h (2 Bft)
27.03.2015 03:40 2,6 C 1,8 C 86 % 1012,7 hPa 0,0 mm 5,1 km/h (1 Bft) W-SW 247 0,5 C 3,1 km/h (1 Bft)
27.03.2015 03:45 2,6 C 1,8 C 86 % 1012,9 hPa 0,0 mm 5,6 km/h (1 Bft) S 180 0,5 C 8,7 km/h (2 Bft)
27.03.2015 03:50 2,6 C 1,9 C 86 % 1012,9 hPa 0,0 mm 4,8 km/h (1 Bft) S-SW 202 0,5 C 4,8 km/h (1 Bft)
27.03.2015 03:55 2,6 C 1,8 C 86 % 1012,9 hPa 0,0 mm 4,8 km/h (1 Bft) W 270 0,5 C 9,5 km/h (2 Bft)
27.03.2015 04:00 2,5 C 1,6 C 86 % 1012,9 hPa 0,0 mm 5,8 km/h (2 Bft) W 270 0,4 C 7,7 km/h (2 Bft)
27.03.2015 04:05 2,5 C 1,5 C 87 % 1013,1 hPa 0,0 mm 6,8 km/h (2 Bft) W-SW 247 0,6 C 9,2 km/h (2 Bft)
27.03.2015 04:10 2,5 C 1,6 C 87 % 1013,1 hPa 0,0 mm 6,3 km/h (2 Bft) S 180 0,6 C 5,3 km/h (1 Bft)
27.03.2015 04:15 2,4 C 1,5 C 87 % 1013,1 hPa 0,0 mm 6,1 km/h (2 Bft) SW 225 0,5 C 14,5 km/h (3 Bft)
27.03.2015 04:20 2,4 C 1,5 C 87 % 1013,1 hPa 0,0 mm 6,0 km/h (2 Bft) W-SW 247 0,5 C 10,9 km/h (2 Bft)
27.03.2015 04:25 2,3 C 1,5 C 87 % 1013,0 hPa 0,0 mm 5,5 km/h (1 Bft) S-SW 202 0,4 C 5,6 km/h (1 Bft)
27.03.2015 04:30 2,3 C 1,6 C 87 % 1013,0 hPa 0,0 mm 5,0 km/h (1 Bft) SW 225 0,4 C 3,9 km/h (1 Bft)
27.03.2015 04:35 2,2 C 1,4 C 87 % 1013,0 hPa 0,0 mm 5,3 km/h (1 Bft) N-NO 22 0,3 C 3,4 km/h (1 Bft)
27.03.2015 04:40 2,2 C 1,4 C 87 % 1013,0 hPa 0,0 mm 5,8 km/h (2 Bft) W-SW 247 0,3 C 6,9 km/h (2 Bft)
27.03.2015 04:45 2,2 C 1,3 C 87 % 1013,3 hPa 0,0 mm 6,3 km/h (2 Bft) W 270 0,3 C 8,4 km/h (2 Bft)
27.03.2015 04:50 2,1 C 1,2 C 87 % 1013,3 hPa 0,0 mm 6,4 km/h (2 Bft) W-SW 247 0,2 C 4,3 km/h (1 Bft)
27.03.2015 04:55 2,0 C 1,3 C 87 % 1013,3 hPa 0,0 mm 5,0 km/h (1 Bft) W 270 0,1 C 3,2 km/h (1 Bft)
27.03.2015 05:00 1,9 C 1,3 C 88 % 1013,3 hPa 0,0 mm 4,2 km/h (1 Bft) W 270 0,1 C 4,3 km/h (1 Bft)
27.03.2015 05:05 2,0 C 1,3 C 87 % 1013,4 hPa 0,0 mm 4,7 km/h (1 Bft) W 270 0,1 C 6,8 km/h (2 Bft)
27.03.2015 05:10 2,0 C 1,3 C 88 % 1013,4 hPa 0,0 mm 4,5 km/h (1 Bft) NW 315 0,2 C 2,4 km/h (1 Bft)
27.03.2015 05:15 2,0 C 1,3 C 88 % 1013,4 hPa 0,0 mm 4,7 km/h (1 Bft) W-SW 247 0,2 C 13,2 km/h (3 Bft)
27.03.2015 05:20 1,9 C 1,3 C 88 % 1013,4 hPa 0,0 mm 4,3 km/h (1 Bft) W 270 0,1 C 5,8 km/h (2 Bft)
27.03.2015 05:25 1,9 C 1,2 C 88 % 1013,6 hPa 0,0 mm 4,8 km/h (1 Bft) W 270 0,1 C 9,5 km/h (2 Bft)
27.03.2015 05:30 1,8 C 1,1 C 88 % 1013,6 hPa 0,0 mm 4,7 km/h (1 Bft) W 270 0,0 C 4,2 km/h (1 Bft)
27.03.2015 05:35 1,8 C 1,1 C 88 % 1013,6 hPa 0,7 mm 4,7 km/h (1 Bft) W 270 0,0 C 7,2 km/h (2 Bft)
27.03.2015 05:40 1,9 C 1,2 C 89 % 1013,6 hPa 0,0 mm 4,7 km/h (1 Bft) W 270 0,3 C 3,2 km/h (1 Bft)
27.03.2015 05:45 1,8 C 1,2 C 89 % 1014,1 hPa 0,0 mm 4,3 km/h (1 Bft) NW 315 0,2 C 4,2 km/h (1 Bft)
27.03.2015 05:50 1,8 C 1,3 C 89 % 1014,1 hPa 0,0 mm 3,9 km/h (1 Bft) W-SW 247 0,2 C 4,2 km/h (1 Bft)
27.03.2015 05:55 1,8 C 1,3 C 89 % 1014,1 hPa 0,0 mm 3,9 km/h (1 Bft) S-SW 202 0,2 C 7,7 km/h (2 Bft)
27.03.2015 06:00 1,8 C 1,2 C 89 % 1014,1 hPa 0,0 mm 4,2 km/h (1 Bft) SW 225 0,2 C 4,2 km/h (1 Bft)
27.03.2015 06:05 1,7 C 1,1 C 89 % 1014,2 hPa 0,0 mm 4,5 km/h (1 Bft) S 180 0,1 C 6,0 km/h (2 Bft)
27.03.2015 06:10 1,6 C 1,0 C 89 % 1014,2 hPa 0,0 mm 4,2 km/h (1 Bft) NW 315 -0,0 C 4,8 km/h (1 Bft)
27.03.2015 06:15 1,5 C 0,8 C 89 % 1014,2 hPa 0,0 mm 4,7 km/h (1 Bft) W-SW 247 -0,1 C 6,8 km/h (2 Bft)
27.03.2015 06:20 1,5 C 0,7 C 89 % 1014,2 hPa 0,0 mm 5,0 km/h (1 Bft) SW 225 -0,1 C 3,5 km/h (1 Bft)
27.03.2015 06:25 1,4 C 0,8 C 89 % 1014,8 hPa 0,0 mm 4,3 km/h (1 Bft) O-SO 112 -0,2 C 3,7 km/h (1 Bft)
27.03.2015 06:30 1,4 C 0,8 C 89 % 1014,8 hPa 0,7 mm 4,2 km/h (1 Bft) W-SW 247 -0,2 C 6,3 km/h (2 Bft)
27.03.2015 06:35 1,3 C 0,6 C 89 % 1014,8 hPa 0,0 mm 5,0 km/h (1 Bft) W-SW 247 -0,3 C 4,2 km/h (1 Bft)
27.03.2015 06:40 1,3 C 0,6 C 89 % 1014,8 hPa 0,0 mm 4,7 km/h (1 Bft) W-SW 247 -0,3 C 5,0 km/h (1 Bft)
27.03.2015 06:45 1,3 C 0,7 C 89 % 1014,8 hPa 0,0 mm 4,0 km/h (1 Bft) SW 225 -0,3 C 6,6 km/h (2 Bft)
27.03.2015 06:50 1,3 C 0,7 C 89 % 1014,8 hPa 0,0 mm 4,0 km/h (1 Bft) W-SW 247 -0,3 C 4,8 km/h (1 Bft)
27.03.2015 06:55 1,3 C 0,8 C 89 % 1014,8 hPa 0,0 mm 3,9 km/h (1 Bft) W-SW 247 -0,3 C 4,7 km/h (1 Bft)
27.03.2015 07:00 1,3 C 0,8 C 89 % 1014,8 hPa 0,0 mm 3,5 km/h (1 Bft) NW 315 -0,3 C 4,5 km/h (1 Bft)
27.03.2015 07:05 1,5 C 0,9 C 89 % 1015,2 hPa 0,0 mm 3,9 km/h (1 Bft) SW 225 -0,1 C 6,4 km/h (2 Bft)
27.03.2015 07:10 1,6 C 0,8 C 89 % 1015,2 hPa 0,0 mm 5,0 km/h (1 Bft) W-SW 247 -0,0 C 7,9 km/h (2 Bft)
27.03.2015 07:15 1,7 C 1,0 C 89 % 1015,2 hPa 0,0 mm 4,7 km/h (1 Bft) S 180 0,1 C 3,9 km/h (1 Bft)
27.03.2015 07:20 1,8 C 1,2 C 89 % 1015,2 hPa 0,0 mm 4,0 km/h (1 Bft) W-SW 247 0,2 C 5,8 km/h (2 Bft)
27.03.2015 07:25 1,9 C 1,2 C 89 % 1015,4 hPa 0,0 mm 4,5 km/h (1 Bft) W-NW 292 0,3 C 10,3 km/h (2 Bft)
27.03.2015 07:30 1,9 C 1,2 C 89 % 1015,4 hPa 0,0 mm 4,8 km/h (1 Bft) SW 225 0,3 C 6,0 km/h (2 Bft)
27.03.2015 07:35 2,0 C 1,4 C 85 % 1015,4 hPa 0,0 mm 4,8 km/h (1 Bft) W-SW 247 -0,3 C 5,1 km/h (1 Bft)
27.03.2015 07:40 2,1 C 1,5 C 89 % 1015,4 hPa 0,0 mm 4,3 km/h (1 Bft) W 270 0,5 C 4,2 km/h (1 Bft)
27.03.2015 07:45 2,2 C 1,7 C 85 % 1015,6 hPa 0,0 mm 4,3 km/h (1 Bft) W-SW 247 -0,1 C 8,5 km/h (2 Bft)
27.03.2015 07:50 2,2 C 1,7 C 85 % 1015,6 hPa 0,0 mm 4,2 km/h (1 Bft) S 180 -0,1 C 3,1 km/h (1 Bft)
27.03.2015 07:55 2,3 C 1,9 C 85 % 1015,6 hPa 0,0 mm 4,0 km/h (1 Bft) W 270 0,0 C 6,9 km/h (2 Bft)
27.03.2015 08:00 2,3 C 2,0 C 85 % 1015,6 hPa 0,0 mm 4,0 km/h (1 Bft) SW 225 0,0 C 5,5 km/h (1 Bft)
27.03.2015 08:05 2,4 C 2,1 C 85 % 1015,8 hPa 0,0 mm 4,2 km/h (1 Bft) S-SW 202 0,1 C 3,4 km/h (1 Bft)
27.03.2015 08:10 2,4 C 2,3 C 85 % 1015,8 hPa 0,0 mm 3,5 km/h (1 Bft) W-SW 247 0,1 C 3,7 km/h (1 Bft)
27.03.2015 08:15 2,5 C 2,4 C 85 % 1015,8 hPa 0,0 mm 3,9 km/h (1 Bft) O-SO 112 0,2 C 6,1 km/h (2 Bft)
27.03.2015 08:20 2,6 C 2,4 C 85 % 1015,8 hPa 0,0 mm 4,0 km/h (1 Bft) SW 225 0,3 C 6,6 km/h (2 Bft)
27.03.2015 08:25 2,7 C 2,6 C 85 % 1015,9 hPa 0,0 mm 4,0 km/h (1 Bft) W-SW 247 0,4 C 5,0 km/h (1 Bft)
27.03.2015 08:30 2,9 C 2,8 C 85 % 1015,9 hPa 0,0 mm 4,3 km/h (1 Bft) W 270 0,6 C 8,2 km/h (2 Bft)
27.03.2015 08:35 3,4 C 4,2 C 84 % 1015,9 hPa 0,0 mm 4,3 km/h (1 Bft) SW 225 1,0 C 7,7 km/h (2 Bft)
27.03.2015 08:40 3,5 C 4,5 C 84 % 1015,9 hPa 0,0 mm 5,3 km/h (1 Bft) W-SW 247 1,1 C 5,0 km/h (1 Bft)
27.03.2015 08:45 3,6 C 4,7 C 84 % 1016,1 hPa 0,0 mm 5,8 km/h (2 Bft) NW 315 1,2 C 8,9 km/h (2 Bft)
27.03.2015 08:50 3,5 C 4,1 C 84 % 1016,1 hPa 0,0 mm 5,8 km/h (2 Bft) W 270 1,1 C 6,3 km/h (2 Bft)
27.03.2015 08:55 3,3 C 3,3 C 84 % 1016,1 hPa 0,0 mm 4,8 km/h (1 Bft) W-SW 247 0,9 C 8,2 km/h (2 Bft)
27.03.2015 09:00 3,2 C 3,2 C 84 % 1016,1 hPa 0,0 mm 4,0 km/h (1 Bft) W-NW 292 0,8 C 4,0 km/h (1 Bft)
27.03.2015 09:05 3,0 C 2,6 C 83 % 1016,6 hPa 0,0 mm 5,3 km/h (1 Bft) W-SW 247 0,4 C 8,2 km/h (2 Bft)
27.03.2015 09:10 2,7 C 2,2 C 84 % 1016,6 hPa 0,0 mm 6,0 km/h (2 Bft) W 270 0,3 C 8,4 km/h (2 Bft)
27.03.2015 09:15 2,7 C 2,2 C 84 % 1016,6 hPa 0,0 mm 5,1 km/h (1 Bft) W-SW 247 0,3 C 3,2 km/h (1 Bft)
27.03.2015 09:20 2,6 C 2,2 C 84 % 1016,6 hPa 0,7 mm 5,0 km/h (1 Bft) W 270 0,2 C 4,7 km/h (1 Bft)
27.03.2015 09:25 2,5 C 2,2 C 84 % 1016,6 hPa 0,0 mm 4,8 km/h (1 Bft) W 270 0,1 C 6,6 km/h (2 Bft)
27.03.2015 09:30 2,5 C 2,1 C 84 % 1016,6 hPa 0,0 mm 5,3 km/h (1 Bft) W 270 0,1 C 8,0 km/h (2 Bft)
27.03.2015 09:35 2,4 C 2,0 C 84 % 1016,6 hPa 0,0 mm 5,3 km/h (1 Bft) W-SW 247 -0,0 C 6,3 km/h (2 Bft)
27.03.2015 09:40 2,4 C 1,8 C 84 % 1016,6 hPa 0,0 mm 5,6 km/h (1 Bft) W 270 -0,0 C 7,1 km/h (2 Bft)
27.03.2015 09:45 2,4 C 2,0 C 85 % 1017,2 hPa 0,0 mm 5,3 km/h (1 Bft) W-NW 292 0,1 C 15,1 km/h (3 Bft)
27.03.2015 09:50 2,5 C 2,0 C 85 % 1017,2 hPa 0,0 mm 5,6 km/h (1 Bft) W 270 0,2 C 12,1 km/h (2 Bft)
27.03.2015 09:55 2,5 C 2,1 C 85 % 1017,2 hPa 0,0 mm 6,4 km/h (2 Bft) W-SW 247 0,2 C 9,0 km/h (2 Bft)
27.03.2015 10:00 2,6 C 2,5 C 85 % 1017,2 hPa 0,0 mm 5,8 km/h (2 Bft) S 180 0,3 C 3,7 km/h (1 Bft)
27.03.2015 10:05 3,0 C 3,1 C 84 % 1017,4 hPa 0,0 mm 5,5 km/h (1 Bft) W-SW 247 0,6 C 7,7 km/h (2 Bft)
27.03.2015 10:10 3,0 C 3,1 C 84 % 1017,4 hPa 0,0 mm 6,3 km/h (2 Bft) W 270 0,6 C 6,9 km/h (2 Bft)
27.03.2015 10:15 3,1 C 3,3 C 84 % 1017,4 hPa 0,0 mm 6,3 km/h (2 Bft) W-NW 292 0,7 C 7,7 km/h (2 Bft)
27.03.2015 10:20 3,2 C 3,7 C 84 % 1017,4 hPa 0,0 mm 4,8 km/h (1 Bft) S-SW 202 0,8 C 4,3 km/h (1 Bft)
27.03.2015 10:25 3,4 C 4,1 C 84 % 1017,5 hPa 0,0 mm 3,9 km/h (1 Bft) NW 315 1,0 C 2,3 km/h (1 Bft)
27.03.2015 10:30 3,5 C 4,6 C 84 % 1017,5 hPa 0,0 mm 4,0 km/h (1 Bft) S-SW 202 1,1 C 5,8 km/h (2 Bft)
27.03.2015 10:35 3,6 C 4,6 C 84 % 1017,5 hPa 0,0 mm 5,1 km/h (1 Bft) W-SW 247 1,2 C 8,5 km/h (2 Bft)
27.03.2015 10:40 4,1 C 5,5 C 84 % 1017,5 hPa 0,0 mm 5,6 km/h (1 Bft) SW 225 1,6 C 9,0 km/h (2 Bft)
27.03.2015 10:45 4,5 C 7,2 C 83 % 1017,6 hPa 0,0 mm 6,0 km/h (2 Bft) W-SW 247 1,9 C 6,0 km/h (2 Bft)
27.03.2015 10:50 4,8 C 8,2 C 83 % 1017,6 hPa 0,0 mm 6,1 km/h (2 Bft) W-SW 247 2,2 C 5,0 km/h (1 Bft)
27.03.2015 10:55 4,7 C 7,8 C 83 % 1017,6 hPa 0,0 mm 5,3 km/h (1 Bft) S-SW 202 2,1 C 12,4 km/h (3 Bft)
27.03.2015 11:00 5,2 C 8,7 C 82 % 1017,6 hPa 0,0 mm 4,8 km/h (1 Bft) W-SW 247 2,4 C 4,7 km/h (1 Bft)
27.03.2015 11:05 5,0 C 8,9 C 81 % 1018,0 hPa 0,0 mm 4,8 km/h (1 Bft) N 360 2,0 C 2,9 km/h (1 Bft)
27.03.2015 11:10 5,2 C 9,6 C 81 % 1018,0 hPa 0,0 mm 4,8 km/h (1 Bft) W-SW 247 2,2 C 10,5 km/h (2 Bft)
27.03.2015 11:15 4,8 C 7,8 C 80 % 1018,0 hPa 0,0 mm 5,5 km/h (1 Bft) W 270 1,6 C 11,9 km/h (2 Bft)
27.03.2015 11:20 4,6 C 6,0 C 79 % 1018,0 hPa 0,0 mm 7,2 km/h (2 Bft) W-SW 247 1,3 C 8,4 km/h (2 Bft)
27.03.2015 11:25 4,6 C 5,8 C 79 % 1018,3 hPa 0,0 mm 6,1 km/h (2 Bft) SW 225 1,3 C 4,5 km/h (1 Bft)
27.03.2015 11:30 4,6 C 5,8 C 79 % 1018,3 hPa 0,0 mm 4,5 km/h (1 Bft) SW 225 1,3 C 4,8 km/h (1 Bft)
27.03.2015 11:35 4,5 C 6,0 C 79 % 1018,3 hPa 0,0 mm 3,2 km/h (1 Bft) SW 225 1,2 C 7,9 km/h (2 Bft)
27.03.2015 11:40 4,5 C 6,0 C 79 % 1018,3 hPa 0,0 mm 3,2 km/h (1 Bft) SW 225 1,2 C 6,1 km/h (2 Bft)
27.03.2015 11:45 4,5 C 5,6 C 78 % 1018,1 hPa 0,0 mm 4,2 km/h (1 Bft) W-NW 292 1,0 C 9,0 km/h (2 Bft)
27.03.2015 11:50 4,5 C 4,9 C 78 % 1018,1 hPa 0,0 mm 4,7 km/h (1 Bft) W-SW 247 1,0 C 5,6 km/h (1 Bft)
27.03.2015 11:55 4,6 C 5,3 C 78 % 1018,1 hPa 0,0 mm 3,9 km/h (1 Bft) O-NO 67 1,1 C 3,4 km/h (1 Bft)
27.03.2015 12:00 4,6 C 5,1 C 78 % 1018,1 hPa 0,0 mm 3,9 km/h (1 Bft) W-SW 247 1,1 C 3,9 km/h (1 Bft)
27.03.2015 12:05 4,5 C 5,2 C 78 % 1018,1 hPa 0,0 mm 3,7 km/h (1 Bft) W-SW 247 1,0 C 3,2 km/h (1 Bft)
27.03.2015 12:10 4,5 C 5,2 C 78 % 1018,1 hPa 0,0 mm 3,5 km/h (1 Bft) W 270 1,0 C 5,1 km/h (1 Bft)
27.03.2015 12:15 5,0 C 6,3 C 77 % 1018,1 hPa 0,0 mm 4,0 km/h (1 Bft) W-SW 247 1,3 C 7,1 km/h (2 Bft)
27.03.2015 12:20 5,5 C 7,2 C 77 % 1018,1 hPa 0,0 mm 4,3 km/h (1 Bft) W 270 1,8 C 7,2 km/h (2 Bft)
27.03.2015 12:25 5,5 C 7,5 C 76 % 1018,0 hPa 0,0 mm 5,0 km/h (1 Bft) W-NW 292 1,6 C 9,7 km/h (2 Bft)
27.03.2015 12:30 5,4 C 6,5 C 75 % 1018,0 hPa 0,0 mm 5,5 km/h (1 Bft) W 270 1,3 C 8,9 km/h (2 Bft)
27.03.2015 12:35 5,3 C 5,8 C 75 % 1018,0 hPa 0,0 mm 6,0 km/h (2 Bft) W-SW 247 1,2 C 7,2 km/h (2 Bft)
27.03.2015 12:40 5,3 C 5,7 C 75 % 1018,0 hPa 0,0 mm 6,4 km/h (2 Bft) W-SW 247 1,2 C 4,5 km/h (1 Bft)
27.03.2015 12:45 5,3 C 5,7 C 74 % 1018,3 hPa 0,0 mm 7,9 km/h (2 Bft) W-NW 292 1,0 C 13,0 km/h (3 Bft)
27.03.2015 12:50 4,1 C 4,4 C 73 % 1018,3 hPa 0,0 mm 10,0 km/h (2 Bft) W 270 -0,3 C 17,1 km/h (3 Bft)
27.03.2015 12:55 2,7 C 2,4 C 73 % 1018,3 hPa 0,0 mm 10,9 km/h (2 Bft) S 180 -1,6 C 10,8 km/h (2 Bft)
27.03.2015 13:00 2,3 C 1,7 C 75 % 1018,3 hPa 0,0 mm 8,9 km/h (2 Bft) W 270 -1,7 C 9,8 km/h (2 Bft)
27.03.2015 13:05 1,9 C 1,0 C 77 % 1018,6 hPa 0,0 mm 7,4 km/h (2 Bft) W 270 -1,7 C 11,3 km/h (2 Bft)
27.03.2015 13:10 1,9 C 1,2 C 77 % 1018,6 hPa 0,0 mm 7,6 km/h (2 Bft) W 270 -1,7 C 8,2 km/h (2 Bft)
27.03.2015 13:15 2,1 C 2,5 C 78 % 1018,6 hPa 0,0 mm 7,9 km/h (2 Bft) W 270 -1,3 C 4,0 km/h (1 Bft)
27.03.2015 13:20 2,3 C 2,8 C 78 % 1018,6 hPa 0,0 mm 7,7 km/h (2 Bft) SW 225 -1,1 C 8,4 km/h (2 Bft)
27.03.2015 13:25 2,5 C 3,3 C 79 % 1018,1 hPa 0,0 mm 5,6 km/h (1 Bft) W-SW 247 -0,8 C 5,5 km/h (1 Bft)
27.03.2015 13:30 3,1 C 4,1 C 78 % 1018,1 hPa 0,7 mm 6,9 km/h (2 Bft) W 270 -0,4 C 6,3 km/h (2 Bft)
27.03.2015 13:35 4,0 C 5,3 C 78 % 1018,1 hPa 0,0 mm 7,6 km/h (2 Bft) W-SW 247 0,5 C 5,3 km/h (1 Bft)
27.03.2015 13:40 4,2 C 5,9 C 78 % 1018,1 hPa 0,7 mm 6,6 km/h (2 Bft) S-SW 202 0,7 C 8,9 km/h (2 Bft)
27.03.2015 13:45 3,7 C 4,5 C 78 % 1018,4 hPa 0,0 mm 7,6 km/h (2 Bft) W-SW 247 0,2 C 9,2 km/h (2 Bft)
27.03.2015 13:50 3,6 C 4,7 C 78 % 1018,4 hPa 0,0 mm 7,7 km/h (2 Bft) NW 315 0,1 C 7,2 km/h (2 Bft)
27.03.2015 13:55 3,6 C 4,2 C 78 % 1018,4 hPa 0,0 mm 6,3 km/h (2 Bft) W-SW 247 0,1 C 6,6 km/h (2 Bft)
27.03.2015 14:00 3,6 C 4,1 C 78 % 1018,4 hPa 0,0 mm 6,6 km/h (2 Bft) S-SW 202 0,1 C 14,5 km/h (3 Bft)
27.03.2015 14:05 4,3 C 5,6 C 78 % 1018,6 hPa 0,0 mm 5,8 km/h (2 Bft) W 270 0,8 C 6,0 km/h (2 Bft)
27.03.2015 14:10 4,9 C 7,3 C 79 % 1018,6 hPa 0,0 mm 4,7 km/h (1 Bft) S 180 1,6 C 2,4 km/h (1 Bft)
27.03.2015 14:15 5,7 C 10,0 C 78 % 1018,6 hPa 0,7 mm 3,7 km/h (1 Bft) W 270 2,2 C 6,3 km/h (2 Bft)
27.03.2015 14:20 5,9 C 10,3 C 77 % 1018,6 hPa 0,0 mm 5,0 km/h (1 Bft) W 270 2,2 C 7,4 km/h (2 Bft)
27.03.2015 14:25 6,5 C 10,2 C 75 % 1018,7 hPa 0,0 mm 7,4 km/h (2 Bft) NW 315 2,4 C 12,6 km/h (3 Bft)
27.03.2015 14:30 5,9 C 9,5 C 74 % 1018,7 hPa 0,0 mm 8,9 km/h (2 Bft) W 270 1,6 C 9,2 km/h (2 Bft)
27.03.2015 14:35 5,8 C 8,0 C 73 % 1018,7 hPa 0,0 mm 8,5 km/h (2 Bft) W-SW 247 1,3 C 8,0 km/h (2 Bft)
27.03.2015 14:40 6,0 C 7,4 C 71 % 1018,7 hPa 0,0 mm 6,8 km/h (2 Bft) W-NW 292 1,1 C 8,9 km/h (2 Bft)
27.03.2015 14:45 6,0 C 6,9 C 70 % 1018,7 hPa 0,0 mm 7,2 km/h (2 Bft) W-SW 247 1,0 C 7,4 km/h (2 Bft)
27.03.2015 14:50 5,9 C 7,2 C 72 % 1018,7 hPa 0,0 mm 8,0 km/h (2 Bft) W-SW 247 1,2 C 7,6 km/h (2 Bft)
27.03.2015 14:55 5,5 C 7,1 C 72 % 1018,7 hPa 0,0 mm 8,9 km/h (2 Bft) W 270 0,9 C 12,6 km/h (3 Bft)
27.03.2015 15:00 5,3 C 6,7 C 72 % 1018,7 hPa 0,0 mm 9,0 km/h (2 Bft) W-NW 292 0,7 C 6,6 km/h (2 Bft)
27.03.2015 15:05 4,4 C 4,9 C 72 % 1019,1 hPa 0,0 mm 8,9 km/h (2 Bft) W 270 -0,2 C 7,4 km/h (2 Bft)
27.03.2015 15:10 4,2 C 3,9 C 73 % 1019,1 hPa 0,0 mm 7,2 km/h (2 Bft) W-SW 247 -0,2 C 3,9 km/h (1 Bft)
27.03.2015 15:15 4,2 C 4,3 C 74 % 1019,1 hPa 0,0 mm 5,1 km/h (1 Bft) W-SW 247 -0,0 C 6,1 km/h (2 Bft)
27.03.2015 15:17 4,4 C 4,8 C 75 % 1019,1 hPa 0,0 mm 5,6 km/h (1 Bft) W 270 0,4 C 7,7 km/h (2 Bft)
27.03.2015 15:26 4,9 C 6,1 C 76 % 1018,9 hPa 0,0 mm 4,0 km/h (1 Bft) W 270 1,0 C 2,6 km/h (1 Bft)
27.03.2015 15:27 4,9 C 6,1 C 76 % 1018,9 hPa 0,0 mm 4,0 km/h (1 Bft) W 270 1,0 C 2,6 km/h (1 Bft)
27.03.2015 15:30 4,9 C 6,1 C 76 % 1018,9 hPa 0,0 mm 4,0 km/h (1 Bft) W 270 1,0 C 2,6 km/h (1 Bft)
27.03.2015 15:35 4,7 C 6,3 C 75 % 1018,9 hPa 0,0 mm 2,9 km/h (1 Bft) W 270 0,7 C 4,5 km/h (1 Bft)
27.03.2015 15:40 4,6 C 5,9 C 75 % 1018,9 hPa 0,0 mm 3,1 km/h (1 Bft) W-SW 247 0,6 C 4,7 km/h (1 Bft)
27.03.2015 15:45 4,6 C 5,2 C 75 % 1018,9 hPa 0,0 mm 3,7 km/h (1 Bft) W-SW 247 0,6 C 3,2 km/h (1 Bft)
27.03.2015 15:50 4,6 C 5,0 C 75 % 1018,9 hPa 0,0 mm 3,7 km/h (1 Bft) W-NW 292 0,6 C 3,1 km/h (1 Bft)
27.03.2015 15:55 4,9 C 5,2 C 75 % 1018,9 hPa 0,0 mm 4,2 km/h (1 Bft) W-SW 247 0,8 C 5,8 km/h (2 Bft)
27.03.2015 16:00 5,0 C 5,3 C 75 % 1018,9 hPa 0,0 mm 4,3 km/h (1 Bft) W-NW 292 0,9 C 5,8 km/h (2 Bft)
27.03.2015 16:05 5,0 C 4,9 C 74 % 1019,1 hPa 0,0 mm 6,6 km/h (2 Bft) W-SW 247 0,8 C 6,0 km/h (2 Bft)
27.03.2015 16:10 4,7 C 4,8 C 73 % 1019,1 hPa 0,0 mm 8,0 km/h (2 Bft) NW 315 0,3 C 6,8 km/h (2 Bft)
27.03.2015 16:15 4,6 C 4,7 C 74 % 1019,1 hPa 0,0 mm 7,7 km/h (2 Bft) W-SW 247 0,4 C 7,2 km/h (2 Bft)
27.03.2015 16:20 4,4 C 4,4 C 74 % 1019,1 hPa 0,0 mm 7,1 km/h (2 Bft) S 180 0,2 C 9,2 km/h (2 Bft)
27.03.2015 16:25 4,3 C 4,4 C 74 % 1019,2 hPa 0,0 mm 6,4 km/h (2 Bft) S 180 0,1 C 5,3 km/h (1 Bft)
27.03.2015 16:30 4,4 C 4,5 C 74 % 1019,2 hPa 0,0 mm 5,6 km/h (1 Bft) W-SW 247 0,2 C 6,4 km/h (2 Bft)
27.03.2015 16:35 4,4 C 4,7 C 74 % 1019,2 hPa 0,0 mm 4,8 km/h (1 Bft) W 270 0,2 C 3,7 km/h (1 Bft)
27.03.2015 16:40 4,4 C 4,7 C 74 % 1019,2 hPa 0,0 mm 4,5 km/h (1 Bft) W-SW 247 0,2 C 3,9 km/h (1 Bft)
27.03.2015 16:45 4,4 C 4,9 C 75 % 1019,5 hPa 0,0 mm 3,7 km/h (1 Bft) W 270 0,4 C 8,4 km/h (2 Bft)
27.03.2015 16:50 4,5 C 5,1 C 75 % 1019,5 hPa 0,0 mm 3,5 km/h (1 Bft) W-SW 247 0,5 C 3,7 km/h (1 Bft)
27.03.2015 16:55 4,6 C 5,1 C 74 % 1019,5 hPa 0,0 mm 4,0 km/h (1 Bft) W-SW 247 0,4 C 5,0 km/h (1 Bft)
27.03.2015 17:00 4,6 C 4,8 C 74 % 1019,5 hPa 0,0 mm 4,7 km/h (1 Bft) W 270 0,4 C 4,7 km/h (1 Bft)
27.03.2015 17:05 4,6 C 4,7 C 74 % 1019,2 hPa 0,0 mm 4,2 km/h (1 Bft) W-NW 292 0,4 C 2,6 km/h (1 Bft)
27.03.2015 17:10 4,2 C 4,0 C 74 % 1019,2 hPa 0,0 mm 4,8 km/h (1 Bft) W-NW 292 -0,0 C 17,4 km/h (3 Bft)
27.03.2015 17:15 2,4 C 2,2 C 76 % 1019,2 hPa 0,0 mm 8,4 km/h (2 Bft) W 270 -1,4 C 10,1 km/h (2 Bft)
27.03.2015 17:20 2,4 C 1,6 C 77 % 1019,2 hPa 0,0 mm 9,2 km/h (2 Bft) W-SW 247 -1,2 C 9,7 km/h (2 Bft)
27.03.2015 17:25 2,5 C 1,7 C 77 % 1020,1 hPa 0,0 mm 6,1 km/h (2 Bft) SW 225 -1,1 C 6,1 km/h (2 Bft)
27.03.2015 17:30 2,5 C 1,8 C 77 % 1020,1 hPa 0,0 mm 5,6 km/h (1 Bft) SW 225 -1,1 C 7,4 km/h (2 Bft)
27.03.2015 17:35 2,6 C 2,0 C 78 % 1020,1 hPa 0,0 mm 5,0 km/h (1 Bft) S 180 -0,8 C 4,8 km/h (1 Bft)
27.03.2015 17:40 2,7 C 2,3 C 78 % 1020,1 hPa 0,0 mm 4,3 km/h (1 Bft) W-SW 247 -0,7 C 4,8 km/h (1 Bft)
27.03.2015 17:45 3,1 C 2,7 C 77 % 1020,1 hPa 0,0 mm 4,8 km/h (1 Bft) SW 225 -0,5 C 7,4 km/h (2 Bft)
27.03.2015 17:50 3,2 C 2,8 C 77 % 1020,1 hPa 0,0 mm 5,0 km/h (1 Bft) W-SW 247 -0,4 C 5,8 km/h (2 Bft)
27.03.2015 17:55 3,3 C 2,7 C 77 % 1020,1 hPa 0,0 mm 5,5 km/h (1 Bft) S 180 -0,3 C 9,7 km/h (2 Bft)
27.03.2015 18:00 3,3 C 2,6 C 77 % 1020,1 hPa 0,0 mm 6,1 km/h (2 Bft) SW 225 -0,3 C 6,4 km/h (2 Bft)
27.03.2015 18:05 3,3 C 2,6 C 77 % 1020,0 hPa 0,0 mm 6,1 km/h (2 Bft) SW 225 -0,3 C 6,0 km/h (2 Bft)
27.03.2015 18:10 3,2 C 2,7 C 77 % 1020,0 hPa 0,0 mm 5,0 km/h (1 Bft) W 270 -0,4 C 2,4 km/h (1 Bft)
27.03.2015 18:15 3,3 C 3,1 C 77 % 1020,0 hPa 0,0 mm 2,7 km/h (1 Bft) W-SW 247 -0,3 C 1,8 km/h (1 Bft)
27.03.2015 18:20 3,2 C 3,1 C 77 % 1020,0 hPa 0,0 mm 1,4 km/h (1 Bft) SW 225 -0,4 C 3,4 km/h (1 Bft)
27.03.2015 18:25 3,1 C 3,0 C 77 % 1020,3 hPa 0,0 mm 1,3 km/h (1 Bft) SW 225 -0,5 C 0,0 km/h (0 Bft)
27.03.2015 18:30 3,0 C 2,8 C 77 % 1020,3 hPa 0,0 mm 1,3 km/h (1 Bft) S-SW 202 -0,6 C 2,3 km/h (1 Bft)
27.03.2015 18:35 2,8 C 2,6 C 78 % 1020,3 hPa 0,0 mm 2,1 km/h (1 Bft) SW 225 -0,6 C 4,0 km/h (1 Bft)
27.03.2015 18:40 2,7 C 2,4 C 78 % 1020,3 hPa 0,0 mm 2,9 km/h (1 Bft) S 180 -0,7 C 4,5 km/h (1 Bft)
27.03.2015 18:45 2,6 C 2,2 C 79 % 1020,4 hPa 0,0 mm 3,2 km/h (1 Bft) SW 225 -0,7 C 6,1 km/h (2 Bft)
27.03.2015 18:50 2,7 C 2,3 C 79 % 1020,4 hPa 0,0 mm 3,5 km/h (1 Bft) W-SW 247 -0,6 C 2,7 km/h (1 Bft)
27.03.2015 18:55 2,8 C 2,5 C 79 % 1020,4 hPa 0,0 mm 3,1 km/h (1 Bft) S 180 -0,5 C 2,4 km/h (1 Bft)
27.03.2015 19:00 2,8 C 2,6 C 79 % 1020,4 hPa 0,0 mm 1,9 km/h (1 Bft) S-SO 157 -0,5 C 0,0 km/h (0 Bft)
27.03.2015 19:05 2,7 C 2,5 C 79 % 1020,8 hPa 0,0 mm 0,2 km/h (0 Bft) O-NO 67 -0,6 C 0,0 km/h (0 Bft)
27.03.2015 19:10 2,6 C 2,4 C 81 % 1020,8 hPa 0,0 mm 0,0 km/h (0 Bft) S 180 -0,3 C 0,0 km/h (0 Bft)
27.03.2015 19:15 2,6 C 2,4 C 81 % 1020,8 hPa 0,0 mm 0,0 km/h (0 Bft) SW 225 -0,3 C 0,0 km/h (0 Bft)
27.03.2015 19:20 2,5 C 2,4 C 79 % 1020,8 hPa 0,0 mm 0,0 km/h (0 Bft) S-SO 157 -0,8 C 2,4 km/h (1 Bft)
27.03.2015 19:25 2,7 C 2,5 C 79 % 1021,0 hPa 0,0 mm 1,6 km/h (1 Bft) SW 225 -0,6 C 2,9 km/h (1 Bft)
27.03.2015 19:30 2,8 C 2,6 C 82 % 1021,0 hPa 0,0 mm 2,3 km/h (1 Bft) SW 225 0,0 C 4,0 km/h (1 Bft)
27.03.2015 19:35 3,0 C 2,7 C 80 % 1021,0 hPa 0,0 mm 2,6 km/h (1 Bft) W 270 -0,1 C 2,7 km/h (1 Bft)
27.03.2015 19:40 3,0 C 2,8 C 80 % 1021,0 hPa 0,0 mm 2,3 km/h (1 Bft) W-SW 247 -0,1 C 3,9 km/h (1 Bft)
27.03.2015 19:45 3,3 C 3,0 C 80 % 1021,1 hPa 0,0 mm 3,2 km/h (1 Bft) W-SW 247 0,2 C 5,5 km/h (1 Bft)
27.03.2015 19:50 3,4 C 2,8 C 80 % 1021,1 hPa 0,0 mm 4,7 km/h (1 Bft) SW 225 0,3 C 8,4 km/h (2 Bft)
27.03.2015 19:55 3,4 C 2,9 C 80 % 1021,1 hPa 0,0 mm 4,5 km/h (1 Bft) W-SW 247 0,3 C 5,3 km/h (1 Bft)
27.03.2015 20:00 3,2 C 2,8 C 79 % 1021,1 hPa 0,0 mm 4,2 km/h (1 Bft) W-SW 247 -0,1 C 3,9 km/h (1 Bft)
27.03.2015 20:05 3,1 C 2,6 C 79 % 1021,4 hPa 0,0 mm 4,2 km/h (1 Bft) SW 225 -0,2 C 4,8 km/h (1 Bft)
27.03.2015 20:10 3,2 C 2,7 C 79 % 1021,4 hPa 0,0 mm 4,0 km/h (1 Bft) W-SW 247 -0,1 C 4,0 km/h (1 Bft)
27.03.2015 20:15 3,2 C 2,7 C 79 % 1021,4 hPa 0,0 mm 4,2 km/h (1 Bft) NW 315 -0,1 C 6,1 km/h (2 Bft)
27.03.2015 20:20 3,3 C 2,7 C 79 % 1021,4 hPa 0,0 mm 4,5 km/h (1 Bft) W-SW 247 0,0 C 6,0 km/h (2 Bft)
27.03.2015 20:25 3,4 C 2,8 C 79 % 1021,4 hPa 0,0 mm 5,0 km/h (1 Bft) S 180 0,1 C 6,6 km/h (2 Bft)
27.03.2015 20:30 3,4 C 2,7 C 79 % 1021,4 hPa 0,0 mm 5,6 km/h (1 Bft) S-SW 202 0,1 C 9,7 km/h (2 Bft)
27.03.2015 20:35 3,4 C 2,7 C 78 % 1021,4 hPa 0,0 mm 6,3 km/h (2 Bft) SW 225 -0,1 C 8,4 km/h (2 Bft)
27.03.2015 20:40 3,4 C 2,6 C 78 % 1021,4 hPa 0,0 mm 6,4 km/h (2 Bft) SW 225 -0,1 C 8,7 km/h (2 Bft)
27.03.2015 20:45 3,4 C 2,7 C 78 % 1021,5 hPa 0,0 mm 6,4 km/h (2 Bft) SW 225 -0,1 C 7,1 km/h (2 Bft)
27.03.2015 20:50 3,4 C 2,7 C 78 % 1021,5 hPa 0,0 mm 6,4 km/h (2 Bft) SW 225 -0,1 C 6,6 km/h (2 Bft)
27.03.2015 20:55 3,4 C 2,6 C 77 % 1021,5 hPa 0,0 mm 6,1 km/h (2 Bft) SW 225 -0,2 C 6,9 km/h (2 Bft)
27.03.2015 21:00 3,4 C 2,6 C 77 % 1021,5 hPa 0,0 mm 6,3 km/h (2 Bft) S-SW 202 -0,2 C 6,8 km/h (2 Bft)
27.03.2015 21:05 3,0 C 2,5 C 77 % 1021,6 hPa 0,0 mm 4,8 km/h (1 Bft) S 180 -0,6 C 5,5 km/h (1 Bft)
27.03.2015 21:10 2,9 C 2,4 C 78 % 1021,6 hPa 0,0 mm 4,2 km/h (1 Bft) S-SW 202 -0,5 C 6,8 km/h (2 Bft)
27.03.2015 21:15 3,0 C 2,5 C 78 % 1021,6 hPa 0,0 mm 4,2 km/h (1 Bft) S 180 -0,5 C 5,6 km/h (1 Bft)
27.03.2015 21:20 3,1 C 2,6 C 78 % 1021,6 hPa 0,0 mm 4,3 km/h (1 Bft) S 180 -0,4 C 4,5 km/h (1 Bft)
27.03.2015 21:25 3,2 C 2,7 C 78 % 1021,8 hPa 0,0 mm 4,5 km/h (1 Bft) SW 225 -0,3 C 4,7 km/h (1 Bft)
27.03.2015 21:30 3,2 C 2,8 C 77 % 1021,8 hPa 0,0 mm 3,9 km/h (1 Bft) S 180 -0,4 C 2,7 km/h (1 Bft)
27.03.2015 21:35 3,0 C 2,6 C 77 % 1021,8 hPa 0,0 mm 3,5 km/h (1 Bft) S-SW 202 -0,6 C 2,7 km/h (1 Bft)
27.03.2015 21:40 2,9 C 2,5 C 78 % 1021,8 hPa 0,0 mm 3,7 km/h (1 Bft) W 270 -0,5 C 4,8 km/h (1 Bft)
27.03.2015 21:45 2,9 C 2,5 C 78 % 1021,9 hPa 0,0 mm 3,5 km/h (1 Bft) SW 225 -0,5 C 4,8 km/h (1 Bft)
27.03.2015 21:50 2,9 C 2,4 C 78 % 1021,9 hPa 0,0 mm 3,9 km/h (1 Bft) S 180 -0,5 C 8,5 km/h (2 Bft)
27.03.2015 21:55 2,9 C 2,3 C 78 % 1021,9 hPa 0,0 mm 4,3 km/h (1 Bft) S-SW 202 -0,5 C 5,3 km/h (1 Bft)
27.03.2015 22:00 3,0 C 2,4 C 77 % 1021,9 hPa 0,0 mm 4,5 km/h (1 Bft) SW 225 -0,6 C 5,5 km/h (1 Bft)
27.03.2015 22:05 3,0 C 2,4 C 77 % 1022,2 hPa 0,0 mm 4,8 km/h (1 Bft) SW 225 -0,6 C 6,3 km/h (2 Bft)
27.03.2015 22:10 3,0 C 2,3 C 77 % 1022,2 hPa 0,0 mm 5,6 km/h (1 Bft) W-SW 247 -0,6 C 8,7 km/h (2 Bft)
27.03.2015 22:15 3,0 C 2,2 C 77 % 1022,2 hPa 0,0 mm 6,1 km/h (2 Bft) SW 225 -0,6 C 10,0 km/h (2 Bft)
27.03.2015 22:20 3,1 C 2,3 C 77 % 1022,2 hPa 0,0 mm 6,1 km/h (2 Bft) S-SW 202 -0,5 C 6,1 km/h (2 Bft)
27.03.2015 22:25 3,0 C 2,4 C 76 % 1022,3 hPa 0,0 mm 5,8 km/h (2 Bft) SW 225 -0,8 C 5,3 km/h (1 Bft)
27.03.2015 22:30 3,0 C 2,4 C 76 % 1022,3 hPa 0,0 mm 5,3 km/h (1 Bft) S-SW 202 -0,8 C 7,6 km/h (2 Bft)
27.03.2015 22:35 3,1 C 2,5 C 76 % 1022,3 hPa 0,0 mm 5,3 km/h (1 Bft) SW 225 -0,7 C 9,7 km/h (2 Bft)
27.03.2015 22:40 3,1 C 2,4 C 76 % 1022,3 hPa 0,0 mm 6,3 km/h (2 Bft) W-SW 247 -0,7 C 6,1 km/h (2 Bft)
27.03.2015 22:45 3,1 C 2,4 C 76 % 1022,4 hPa 0,0 mm 6,3 km/h (2 Bft) W-SW 247 -0,7 C 7,2 km/h (2 Bft)
27.03.2015 22:50 3,2 C 2,5 C 76 % 1022,4 hPa 0,0 mm 6,1 km/h (2 Bft) SW 225 -0,6 C 8,9 km/h (2 Bft)
27.03.2015 22:55 3,1 C 2,4 C 76 % 1022,4 hPa 0,0 mm 6,4 km/h (2 Bft) SW 225 -0,7 C 6,0 km/h (2 Bft)
27.03.2015 23:00 3,1 C 2,5 C 76 % 1022,4 hPa 0,0 mm 5,8 km/h (2 Bft) W-SW 247 -0,7 C 5,8 km/h (2 Bft)
27.03.2015 23:05 3,1 C 2,5 C 76 % 1022,2 hPa 0,0 mm 5,5 km/h (1 Bft) W-SW 247 -0,7 C 6,4 km/h (2 Bft)
27.03.2015 23:10 3,0 C 2,4 C 75 % 1022,2 hPa 0,0 mm 5,8 km/h (2 Bft) SW 225 -1,0 C 5,8 km/h (2 Bft)
27.03.2015 23:15 2,9 C 2,3 C 76 % 1022,2 hPa 0,0 mm 5,6 km/h (1 Bft) SW 225 -0,9 C 6,8 km/h (2 Bft)
27.03.2015 23:20 3,0 C 2,4 C 75 % 1022,2 hPa 0,0 mm 5,5 km/h (1 Bft) S 180 -1,0 C 5,0 km/h (1 Bft)
27.03.2015 23:25 3,0 C 2,4 C 75 % 1022,6 hPa 0,0 mm 5,1 km/h (1 Bft) S 180 -1,0 C 7,2 km/h (2 Bft)
27.03.2015 23:30 3,0 C 2,4 C 75 % 1022,6 hPa 0,0 mm 4,8 km/h (1 Bft) SW 225 -1,0 C 4,8 km/h (1 Bft)
27.03.2015 23:35 2,9 C 2,3 C 76 % 1022,6 hPa 0,0 mm 4,8 km/h (1 Bft) SW 225 -0,9 C 6,8 km/h (2 Bft)
27.03.2015 23:40 2,9 C 2,4 C 75 % 1022,6 hPa 0,0 mm 4,7 km/h (1 Bft) SW 225 -1,1 C 4,5 km/h (1 Bft)
27.03.2015 23:45 2,8 C 2,3 C 75 % 1022,6 hPa 0,0 mm 4,0 km/h (1 Bft) SW 225 -1,2 C 4,8 km/h (1 Bft)
27.03.2015 23:50 2,8 C 2,4 C 75 % 1022,6 hPa 0,0 mm 3,9 km/h (1 Bft) S-SW 202 -1,2 C 4,8 km/h (1 Bft)
27.03.2015 23:55 2,7 C 2,3 C 76 % 1022,6 hPa 0,0 mm 4,2 km/h (1 Bft) S-SW 202 -1,1 C 5,0 km/h (1 Bft)
_ Min-Zeit 07:00 06:40 14:45 01:20 - 19:20 - - 13:10 19:15
Minimum _ 1,3 C 0,6 C 70 % 1011,6 hPa - 0,0 km/h (0 Bft) - - -1,7 C 0,0 km/h (0 Bft)
_ Max-Zeit 14:25 14:20 07:40 23:55 14:15 12:55 - - 14:25 02:35
Maximum _ 6,5 C 10,3 C 89 % 1022,6 hPa 0,7 mm 10,9 km/h
S (2 Bft)
- - 2,4 C 20,9 km/h
W (4 Bft)
Durchschnitt _ 3,2 C 3,2 C 81 % 1017,3 hPa #4,8 mm 5,1 km/h (1 Bft) W-SW - 0,2 C 6,4 km/h (2 Bft)